STARLINK-1148 (45052 NORAD) Tracking and Keplerian Element Data

This shows tracking and keplerian element data for the satellite.

Feedback or suggestion? Click here.




ElementValue
Catalog45052
NameSTARLINK-1148
Epoch Orbit2575
Epoch Day196.91667824
Epoch Year2020
RAAN191.2563
Inclination52.9974
Eccentricity0.0001262
Argument of Perigee93.8286
Mean Anonmoly215.1531
Mean Motion15.05561816
Decay Rate0.0003781
L11 45052U 20006J 20196.91667824 .00037810 00000-0 26015-2 0 9990
L22 45052 52.9974 191.2563 0001262 93.8286 215.1531 15.05561816 25753

Live tracking and technical data element details for STARLINK-1148 (NORAD 45052). STARLINK-1148 can be tracked NOW for your location showing map with azimuth and elevation plus other details from your city location.

Track the satellite on the map from your city or location and see movement details for azimuth, elevation, latitude, longitude, range, height, and movement on the map or in text.







IsCatalogInMostPopularTable: catalog: 45052, numindb: 28
Update: records affected: 1



GetName: 45052 STARLINK-1148

Hit Count: updated at: Thu, 16 Jul 2020 03:43:39 GMT